Tracking 28091 objects as of 30-Sep-2023
HD Live streaming from Space Station
objects crossing your sky now

STARLINK-5960

Track STARLINK-5960 now!
10-day predictions
STARLINK-5960 is classified as:


NORAD ID: 56920
Int'l Code: 2023-083AW
Perigee: 565.3 km
Apogee: 567.0 km
Inclination: 43.0 °
Period: 95.8 minutes
Semi major axis: 6937 km
RCS: Unknown
Launch date: June 12, 2023
Source: United States (US)
Launch site: AIR FORCE EASTERN TEST RANGE (AFETR)
Your satellite tracking list
Your tracking list is empty




NASA's NSSDC Master Catalog

Two Line Element Set (TLE):
1 56920U 23083AW  23273.36584415  .00001867  00000-0  15322-3 0  9999
2 56920  43.0029 231.8433 0001207 277.3325  82.7380 15.02548728 16945
Source of the keplerian elements: AFSPC